• Join FlightAware (Why Join?)
  • Login
  • US Flag GB Flag 
04:03 EDT


 

Airport Tracker/Info


-or-


 

Live Flight TrackerFlight Track Log ✈ UAL5942 ✈ 30-Apr-2013 ✈ KRDU - KIAD

Flight Track Log - Related Links

Times and Time Zones

All times are in EDT time to prevent confusion due to time zone crossing. See the UAL5942 flight status page for this flight to view local times or setup timezone preferences in your user account.

Time Position Orientation Groundspeed Altitude Reporting Facility
EDT Latitude Longitude Course Direction KTS MPH feet Rate Location/Type
19:58 35.9008 -78.7742 15° North 180 207 1,500  Level Washington Center
19:59 35.9603 -78.7381 26° Northeast 203 234 4,400 2,580 Climbing Washington Center
20:00 35.9772 -78.7258 30° Northeast 214 246 5,500 2,100 Climbing Washington Center
20:00 36.0133 -78.7042 26° Northeast 252 290 6,500 2,280 Climbing Washington Center
20:01 36.0971 -78.7007 11° North  Level FlightAware Approximate
20:01 36.0850 -78.6789 16° North 284 327 9,300  Level Washington Center
20:02 36.1703 -78.6675 19° North  Level FlightAware Approximate
20:02 36.1606 -78.6611 11° North 279 321 11,200  Level Washington Center
20:03 36.2460 -78.6351 19° North  Level FlightAware Approximate
20:03 36.2550 -78.6392 11° North 317 365 12,500  Level Washington Center
20:04 36.3232 -78.6089 15° North  Level FlightAware Approximate
20:04 36.3517 -78.6144 12° North 341 392 14,000  Level Washington Center
20:05 36.4528 -78.5797 15° North 361 415 15,600 1,500 Climbing Washington Center
20:06 36.5558 -78.5450 15° North 366 421 17,000 1,320 Climbing Washington Center
20:07 36.6589 -78.5047 17° North 377 434 18,300 960 Climbing Washington Center
20:08 36.7539 -78.4669 18° North 383 441 19,000 300 Climbing Washington Center
20:09 36.8472 -78.3925 33° Northeast 388 447 19,000  Level Washington Center
20:10 36.9450 -78.3156 32° Northeast 399 459 19,000  Level Washington Center
20:11 37.0472 -78.2281 34° Northeast 406 467 19,000  Level Washington Center
20:12 37.1236 -78.1681 32° Northeast 406 467 19,000  Level Washington Center
20:13 37.2256 -78.0803 34° Northeast 406 467 19,000  Level Washington Center
20:14 37.3211 -78.0022 33° Northeast 406 467 19,000  Level Washington Center
20:15 37.4144 -77.9217 34° Northeast 406 467 19,000  Level Washington Center
20:16 37.5097 -77.8458 32° Northeast 406 467 19,000 -420 Level Washington Center
20:17 37.6069 -77.7806 28° Northeast 401 461 18,200 -1,080 Descending Washington Center
20:18 37.7081 -77.7233 24° Northeast 396 456 16,900 -1,980 Descending Washington Center
20:19 37.8028 -77.6681 25° Northeast 384 442 14,400 -2,580 Descending Washington Center
20:20 37.8933 -77.6153 25° Northeast 373 429 11,900 -2,160 Descending Washington Center
20:21 37.9839 -77.5597 26° Northeast 360 414 10,100 -960 Descending Washington Center
20:22 38.0808 -77.5094 22° Northeast 355 409 10,000 -60 Descending Washington Center
20:23 38.1672 -77.4564 26° Northeast 345 397 10,000  Level Washington Center
20:24 38.2469 -77.4106 24° Northeast 326 375 10,000 -660 Level Washington Center
20:25 38.3164 -77.3675 26° Northeast 296 341 8,800 -1,020 Descending Washington Center
20:26 38.3894 -77.3611 North 262 302 8,000 -420 Descending Washington Center
20:27 38.4647 -77.3603 360° North 262 302 8,000 -600 Level Washington Center
20:28 38.5375 -77.3647 357° North 262 302 6,900 -960 Descending Washington Center
20:30 38.6500 -77.3667 359° North 259 298 5,800 -840 Descending Potomac TRACON
20:31 38.7167 -77.3667 360° North 264 304 5,000 -360 Descending Potomac TRACON
20:32 38.7833 -77.3500 11° North 260 299 5,100 -120 Climbing Potomac TRACON
20:33 38.8667 -77.3500 360° North 274 315 4,800 -540 Descending Potomac TRACON
20:34 38.9333 -77.3500 360° North 246 283 4,100 -360 Descending Potomac TRACON
20:35 39.0000 -77.3500 360° North 221 254 4,100 -120 Level Potomac TRACON
20:36 39.0500 -77.3500 360° North 223 257 3,900 -540 Descending Potomac TRACON
20:37 39.1167 -77.3500 360° North 218 251 3,100 -900 Descending Potomac TRACON
20:38 39.1667 -77.3667 346° North 239 275 2,100 -540 Descending Potomac TRACON
20:39 39.1500 -77.4333 252° West 229 264 2,100  Level Potomac TRACON